This demonstration page uses our WeatherBlox Daily Observations layout. Learn more.

Left ArrowRight Arrow

41.86663, -103.66717

Hourly Observations for December 2, 2021

Temp ( °F °C ) Dew Point ( °F °C ) Humidity (%) Winds ( mph kmh ) Pressure ( in mb ) Visibility ( mi km ) Precip ( " mm )
12:53 am 00:53 Clear 46 7.8 28 -2.2 50 50 NW 8 13 30.01 1016 10 16 N/A
1:53 am 01:53 Clear 48 8.9 29 -1.7 48 48 WNW 7 11 29.99 1016 10 16 N/A
2:53 am 02:53 Clear 43 6.1 29 -1.7 58 58 NNW 10 17 30.00 1016 10 16 N/A
3:53 am 03:53 Clear 48 8.9 29 -1.7 48 48 WNW 9 15 29.98 1015 10 16 N/A
4:53 am 04:53 Clear 44 6.7 29 -1.7 55 55 NW 9 15 30.00 1016 10 16 N/A
5:53 am 05:53 Clear 46 7.8 30 -1.1 54 54 WNW 6 9 30.00 1016 10 16 N/A
6:53 am 06:53 Clear 43 6.1 29 -1.7 58 58 NNW 9 15 30.01 1016 10 16 N/A
7:53 am 07:53 Sunny 49 9.4 32 undefined 52 52 NNW 7 11 30.01 1016 10 16 N/A
8:53 am 08:53 Sunny 61 16.1 32 undefined 34 34 W 7 11 30.00 1016 10 16 N/A
9:53 am 09:53 Sunny 68 20 32 undefined 26 26 W 12 19 29.98 1015 10 16 N/A
10:53 am 10:53 Sunny 71 21.7 31 -0.6 23 23 W 20 31 29.95 1014 10 16 N/A
11:53 am 11:53 Sunny 73 22.8 30 -1.1 20 20 W 14 22 29.91 1013 10 16 N/A
12:53 pm 12:53 Sunny 74 23.3 28 -2.2 18 18 WSW 15 24 29.87 1011 10 16 N/A
1:53 pm 13:53 Sunny 77 25 29 -1.7 17 17 W 17 28 29.81 1010 10 16 N/A
2:53 pm 14:53 Sunny 75 23.9 29 -1.7 18 18 W 16 26 29.82 1010 10 16 N/A
3:53 pm 15:53 Sunny 72 22.2 29 -1.7 20 20 W 15 24 29.82 1010 10 16 N/A
4:53 pm 16:53 Clear 66 18.9 28 -2.2 24 24 W 12 19 29.86 1011 10 16 N/A
5:53 pm 17:53 Clear 57 13.9 28 -2.2 33 33 WNW 10 17 29.89 1012 10 16 N/A
6:53 pm 18:53 Clear 63 17.2 28 -2.2 27 27 W 13 20 29.89 1012 10 16 N/A
7:53 pm 19:53 Clear 57 13.9 27 -2.8 32 32 W 8 13 29.90 1012 10 16 N/A
8:53 pm 20:53 Clear 50 10 28 -2.2 43 43 NW 12 19 29.90 1012 10 16 N/A
9:53 pm 21:53 Clear 49 9.4 28 -2.2 44 44 WNW 9 15 29.88 1012 10 16 N/A
10:53 pm 22:53 Clear 50 10 31 -0.6 48 48 NNE 15 24 29.93 1014 10 16 N/A
11:53 pm 23:53 Clear 47 8.3 33 0.6 59 59 NNE 18 30 29.96 1015 10 16 N/A

Powered by AerisWeather